Terug naar catalogus

COSMOS 2251 DEB

ActiefLEO
NORAD 34564·DEBRIS·🇷🇺 Russia

Gelanceerd Jun 16, 1993 vanaf Plesetsk Cosmodrome

Loading…

Volgende Passages (komende 24 uur)

TLE

VersSource: Space-Track

Epoch: Sep 14, 2026, 19:51 UTC

1 34564U 93036VA  26257.82708902  .00000427  00000-0  14067-3 0  9995
2 34564  74.0304  87.0203 0018399 128.7583 245.2446 14.41070524919831

Volg COSMOS 2251 DEB in realtime met AllMySat

Download on the App Store